Index of /20260413/WXO-DD/model_gdps/15km/00/029
Name Last modified Size Description
Parent Directory -
20260413T00Z_MSC_GDPS_AirTemp_AGL-120m_LatLon0.15_PT029H.grib2 2026-04-13 04:05 904K
20260413T00Z_MSC_GDPS_AirTemp_AGL-2m_LatLon0.15_PT029H.grib2 2026-04-13 04:05 1.0M
20260413T00Z_MSC_GDPS_AirTemp_AGL-40m_LatLon0.15_PT029H.grib2 2026-04-13 04:05 922K
20260413T00Z_MSC_GDPS_AirTemp_AGL-80m_LatLon0.15_PT029H.grib2 2026-04-13 04:05 912K
20260413T00Z_MSC_GDPS_Albedo_Sfc_LatLon0.15_PT029H.grib2 2026-04-13 04:05 246K
20260413T00Z_MSC_GDPS_ConvectivePrecip-Accum_Sfc_LatLon0.15_PT029H.grib2 2026-04-13 04:05 2.4M
20260413T00Z_MSC_GDPS_DewPointDepression_AGL-2m_LatLon0.15_PT029H.grib2 2026-04-13 04:05 749K
20260413T00Z_MSC_GDPS_DewPoint_AGL-2m_LatLon0.15_PT029H.grib2 2026-04-13 04:05 606K
20260413T00Z_MSC_GDPS_DownwardLongwaveRadiationFlux-Accum_Sfc_LatLon0.15_PT029H.grib2 2026-04-13 04:05 1.0M
20260413T00Z_MSC_GDPS_DownwardShortwaveRadiationFlux-Accum_Sfc_LatLon0.15_PT029H.grib2 2026-04-13 04:05 1.0M
20260413T00Z_MSC_GDPS_FreezingRain-Accum1h_Sfc_LatLon0.15_PT029H.grib2 2026-04-13 04:05 15K
20260413T00Z_MSC_GDPS_FreezingRain-Accum_Sfc_LatLon0.15_PT029H.grib2 2026-04-13 04:05 104K
20260413T00Z_MSC_GDPS_IcePellets-Accum1h_Sfc_LatLon0.15_PT029H.grib2 2026-04-13 04:05 9.5K
20260413T00Z_MSC_GDPS_IcePellets-Accum_Sfc_LatLon0.15_PT029H.grib2 2026-04-13 04:05 40K
20260413T00Z_MSC_GDPS_LatentHeatNetFlux_Sfc_LatLon0.15_PT029H.grib2 2026-04-13 04:05 514K
20260413T00Z_MSC_GDPS_NetLongwaveRadiationFlux-Accum_Sfc_LatLon0.15_PT029H.grib2 2026-04-13 04:05 1.3M
20260413T00Z_MSC_GDPS_NetShortwaveRadiationFlux-Accum_Sfc_LatLon0.15_PT029H.grib2 2026-04-13 04:05 964K
20260413T00Z_MSC_GDPS_O3MixingRatio_LatLon0.15_PT029H.grib2 2026-04-13 05:05 2.0M
20260413T00Z_MSC_GDPS_O3_EAtm_LatLon0.15_PT029H.grib2 2026-04-13 05:05 2.1M
20260413T00Z_MSC_GDPS_PlanetaryBoundaryLayerHeight_Sfc_LatLon0.15_PT029H.grib2 2026-04-13 04:05 2.5M
20260413T00Z_MSC_GDPS_Precip-Accum1h_Sfc_LatLon0.15_PT029H.grib2 2026-04-13 04:05 3.1M
20260413T00Z_MSC_GDPS_Precip-Accum_Sfc_LatLon0.15_PT029H.grib2 2026-04-13 04:05 4.1M
20260413T00Z_MSC_GDPS_PrecipRate_Sfc_LatLon0.15_PT029H.grib2 2026-04-13 04:05 2.8M
20260413T00Z_MSC_GDPS_Pressure_MSL_LatLon0.15_PT029H.grib2 2026-04-13 04:05 814K
20260413T00Z_MSC_GDPS_Pressure_Sfc_LatLon0.15_PT029H.grib2 2026-04-13 04:05 1.1M
20260413T00Z_MSC_GDPS_RadiativeTemp_Sfc_LatLon0.15_PT029H.grib2 2026-04-13 04:05 661K
20260413T00Z_MSC_GDPS_Rain-Accum1h_Sfc_LatLon0.15_PT029H.grib2 2026-04-13 04:05 1.6M
20260413T00Z_MSC_GDPS_Rain-Accum_Sfc_LatLon0.15_PT029H.grib2 2026-04-13 04:05 3.2M
20260413T00Z_MSC_GDPS_RelativeHumidity_AGL-2m_LatLon0.15_PT029H.grib2 2026-04-13 04:05 1.0M
20260413T00Z_MSC_GDPS_Runoff-Accum_Sfc_LatLon0.15_PT029H.grib2 2026-04-13 04:05 78K
20260413T00Z_MSC_GDPS_SensibleHeatNetFlux_Sfc_LatLon0.15_PT029H.grib2 2026-04-13 04:05 628K
20260413T00Z_MSC_GDPS_Snow-Accum1h_Sfc_LatLon0.15_PT029H.grib2 2026-04-13 04:05 901K
20260413T00Z_MSC_GDPS_Snow-Accum_Sfc_LatLon0.15_PT029H.grib2 2026-04-13 04:05 1.6M
20260413T00Z_MSC_GDPS_SnowDepth_Sfc_LatLon0.15_PT029H.grib2 2026-04-13 04:05 1.8M
20260413T00Z_MSC_GDPS_SoilTemp_DBS-0to10cm_LatLon0.15_PT029H.grib2 2026-04-13 04:05 496K
20260413T00Z_MSC_GDPS_SoilTemp_Sfc_LatLon0.15_PT029H.grib2 2026-04-13 04:05 572K
20260413T00Z_MSC_GDPS_SoilVolumetricWaterContent_DBS-0to10cm_LatLon0.15_PT029H.grib2 2026-04-13 04:05 551K
20260413T00Z_MSC_GDPS_SoilVolumetricWaterContent_DBS-0to1cm_LatLon0.15_PT029H.grib2 2026-04-13 04:05 652K
20260413T00Z_MSC_GDPS_SpecificHumidity_AGL-120m_LatLon0.15_PT029H.grib2 2026-04-13 04:05 1.1M
20260413T00Z_MSC_GDPS_SpecificHumidity_AGL-2m_LatLon0.15_PT029H.grib2 2026-04-13 04:05 1.2M
20260413T00Z_MSC_GDPS_SpecificHumidity_AGL-40m_LatLon0.15_PT029H.grib2 2026-04-13 04:05 1.1M
20260413T00Z_MSC_GDPS_SpecificHumidity_AGL-80m_LatLon0.15_PT029H.grib2 2026-04-13 04:05 1.1M
20260413T00Z_MSC_GDPS_SpecificHumidity_Sfc_LatLon0.15_PT029H.grib2 2026-04-13 04:05 650K
20260413T00Z_MSC_GDPS_TotalCloudCover_Sfc_LatLon0.15_PT029H.grib2 2026-04-13 04:05 822K
20260413T00Z_MSC_GDPS_UVIndex-ClearSky_Sfc_LatLon0.15_PT029H.grib2 2026-04-13 05:05 1.0M
20260413T00Z_MSC_GDPS_UVIndex_Sfc_LatLon0.15_PT029H.grib2 2026-04-13 05:05 1.4M
20260413T00Z_MSC_GDPS_UpwardLongwaveRadiationFlux_NTAtm_LatLon0.15_PT029H.grib2 2026-04-13 04:05 820K
20260413T00Z_MSC_GDPS_WindDir_AGL-10m_LatLon0.15_PT029H.grib2 2026-04-13 04:05 1.3M
20260413T00Z_MSC_GDPS_WindDir_AGL-120m_LatLon0.15_PT029H.grib2 2026-04-13 04:05 1.3M
20260413T00Z_MSC_GDPS_WindDir_AGL-40m_LatLon0.15_PT029H.grib2 2026-04-13 04:05 1.4M
20260413T00Z_MSC_GDPS_WindDir_AGL-80m_LatLon0.15_PT029H.grib2 2026-04-13 04:05 1.4M
20260413T00Z_MSC_GDPS_WindDir_IsbL-0700_LatLon0.15_PT029H.grib2 2026-04-13 04:05 1.6M
20260413T00Z_MSC_GDPS_WindGust-Max_AGL-10m_LatLon0.15_PT029H.grib2 2026-04-13 04:05 2.2M
20260413T00Z_MSC_GDPS_WindGust-Min_AGL-10m_LatLon0.15_PT029H.grib2 2026-04-13 04:05 2.2M
20260413T00Z_MSC_GDPS_WindGust_AGL-10m_LatLon0.15_PT029H.grib2 2026-04-13 04:05 2.2M
20260413T00Z_MSC_GDPS_WindSpeed_AGL-10m_LatLon0.15_PT029H.grib2 2026-04-13 04:05 1.1M
20260413T00Z_MSC_GDPS_WindSpeed_AGL-120m_LatLon0.15_PT029H.grib2 2026-04-13 04:05 1.2M
20260413T00Z_MSC_GDPS_WindSpeed_AGL-40m_LatLon0.15_PT029H.grib2 2026-04-13 04:05 1.2M
20260413T00Z_MSC_GDPS_WindSpeed_AGL-80m_LatLon0.15_PT029H.grib2 2026-04-13 04:05 1.2M
20260413T00Z_MSC_GDPS_WindSpeed_IsbL-0700_LatLon0.15_PT029H.grib2 2026-04-13 04:05 1.5M
20260413T00Z_MSC_GDPS_WindU_AGL-10m_LatLon0.15_PT029H.grib2 2026-04-13 04:05 1.3M
20260413T00Z_MSC_GDPS_WindU_AGL-120m_LatLon0.15_PT029H.grib2 2026-04-13 04:05 1.0M
20260413T00Z_MSC_GDPS_WindU_AGL-40m_LatLon0.15_PT029H.grib2 2026-04-13 04:05 962K
20260413T00Z_MSC_GDPS_WindU_AGL-80m_LatLon0.15_PT029H.grib2 2026-04-13 04:05 1.0M
20260413T00Z_MSC_GDPS_WindU_IsbL-0700_LatLon0.15_PT029H.grib2 2026-04-13 04:05 1.2M
20260413T00Z_MSC_GDPS_WindV_AGL-10m_LatLon0.15_PT029H.grib2 2026-04-13 04:05 1.3M
20260413T00Z_MSC_GDPS_WindV_AGL-120m_LatLon0.15_PT029H.grib2 2026-04-13 04:05 964K
20260413T00Z_MSC_GDPS_WindV_AGL-40m_LatLon0.15_PT029H.grib2 2026-04-13 04:05 958K
20260413T00Z_MSC_GDPS_WindV_AGL-80m_LatLon0.15_PT029H.grib2 2026-04-13 04:05 965K
20260413T00Z_MSC_GDPS_WindV_IsbL-0700_LatLon0.15_PT029H.grib2 2026-04-13 04:05 1.2M